ARG1522 SAEZ-SACO

Flight info

Callsign ARG1522
Flight time N/A
Altitude 40000
Route ATOVO1E ATOVO UW5 ASISA ASISA1Q
Aircraft A343/H-SDE2E3FGHIJ4J5M1RWXY/LB1D1

Departure

Time 2026-04-27 12:09
Airport Ezeiza International Airport - Ministro Pistarini (SAEZ)

Arrival

Time N/A
Airport Ingeniero Aeronáutico Ambrosio L.V. Taravella International Airport (SACO)
Time Latitude Longitude Altitude Speed Heading
2026-04-27 11:21 -34.81303 -58.53702 79 ft 0 kts 244°
2026-04-27 11:57 -34.81298 -58.53688 85 ft 4 kts 244°
2026-04-27 11:57 -34.81285 -58.53658 85 ft 4 kts 244°
2026-04-27 11:57 -34.81276 -58.53634 85 ft 4 kts 247°
2026-04-27 11:58 -34.81271 -58.53605 85 ft 4 kts 289°
2026-04-27 11:58 -34.81285 -58.53587 84 ft 4 kts 357°
2026-04-27 11:58 -34.81311 -58.53587 84 ft 3 kts
2026-04-27 11:58 -34.81315 -58.53587 83 ft 0 kts
2026-04-27 12:02 -34.81314 -58.53587 79 ft 1 kts
2026-04-27 12:02 -34.81299 -58.53587 91 ft 3 kts
2026-04-27 12:02 -34.81266 -58.53587 85 ft 6 kts 358°
2026-04-27 12:02 -34.81219 -58.53589 83 ft 8 kts
2026-04-27 12:03 -34.81169 -58.53555 83 ft 8 kts 54°
2026-04-27 12:03 -34.81163 -58.53483 80 ft 9 kts 91°
2026-04-27 12:03 -34.81167 -58.53404 83 ft 9 kts 93°
2026-04-27 12:03 -34.81172 -58.53341 86 ft 6 kts 102°
2026-04-27 12:04 -34.81183 -58.53302 90 ft 5 kts 114°
2026-04-27 12:04 -34.81286 -58.53236 90 ft 28 kts 161°
2026-04-27 12:04 -34.81481 -58.53171 87 ft 30 kts 165°
2026-04-27 12:04 -34.81683 -58.53102 86 ft 31 kts 164°
2026-04-27 12:05 -34.81886 -58.53031 84 ft 26 kts 164°
2026-04-27 12:05 -34.82036 -58.52944 88 ft 24 kts 121°
2026-04-27 12:05 -34.82082 -58.52741 86 ft 26 kts 103°
2026-04-27 12:05 -34.82123 -58.52521 84 ft 27 kts 101°
2026-04-27 12:06 -34.82171 -58.52294 83 ft 28 kts 104°
2026-04-27 12:06 -34.82218 -58.52058 82 ft 29 kts 103°
2026-04-27 12:06 -34.82250 -58.51901 79 ft 11 kts 103°
2026-04-27 12:06 -34.82273 -58.51804 79 ft 12 kts 120°
2026-04-27 12:07 -34.82311 -58.51788 80 ft 5 kts 179°
2026-04-27 12:07 -34.82367 -58.51795 80 ft 12 kts 191°
2026-04-27 12:07 -34.82458 -58.51827 87 ft 12 kts 202°
2026-04-27 12:07 -34.82512 -58.51894 91 ft 12 kts 247°
2026-04-27 12:08 -34.82505 -58.51996 86 ft 13 kts 281°
2026-04-27 12:08 -34.82477 -58.52161 84 ft 42 kts 283°
2026-04-27 12:08 -34.82364 -58.52778 88 ft 105 kts 282°
2026-04-27 12:08 -34.82172 -58.53846 224 ft 141 kts 281°
2026-04-27 12:09 -34.81945 -58.54988 957 ft 140 kts 277°
2026-04-27 12:09 -34.81747 -58.56210 1497 ft 160 kts 271°
2026-04-27 12:09 -34.81524 -58.57648 1928 ft 189 kts 271°
2026-04-27 12:09 -34.81410 -58.59329 2332 ft 213 kts 253°
2026-04-27 12:10 -34.82073 -58.61009 2914 ft 231 kts 230°
2026-04-27 12:10 -34.83047 -58.62590 4018 ft 235 kts 229°
2026-04-27 12:10 -34.84051 -58.64185 5167 ft 240 kts 230°
2026-04-27 12:10 -34.85065 -58.65816 6254 ft 243 kts 231°
2026-04-27 12:11 -34.86085 -58.67491 7301 ft 248 kts 231°
2026-04-27 12:11 -34.87247 -58.69054 8337 ft 251 kts 218°
2026-04-27 12:11 -34.88764 -58.70099 9377 ft 253 kts 198°
2026-04-27 12:11 -34.90519 -58.70368 10366 ft 259 kts 178°
2026-04-27 12:12 -34.92330 -58.69793 10853 ft 286 kts 157°
2026-04-27 12:12 -34.94002 -58.68275 11221 ft 314 kts 141°
2026-04-27 12:12 -34.95492 -58.66232 11828 ft 330 kts 133°
2026-04-27 12:12 -34.96790 -58.63863 12582 ft 343 kts 125°
2026-04-27 12:13 -34.97827 -58.61236 13375 ft 355 kts 116°
2026-04-27 12:13 -34.98326 -58.58228 14099 ft 374 kts 96°
2026-04-27 12:13 -34.97877 -58.55050 14797 ft 390 kts 72°
2026-04-27 12:13 -34.96448 -58.52180 15405 ft 404 kts 49°
2026-04-27 12:14 -34.94219 -58.50061 16017 ft 411 kts 25°
2026-04-27 12:14 -34.91505 -58.49026 16694 ft 409 kts
2026-04-27 12:14 -34.88704 -58.49208 17396 ft 400 kts 339°
2026-04-27 12:14 -34.86999 -58.49969 17885 ft 390 kts 324°
2026-04-27 12:15 -34.83799 -58.52071 18839 ft 396 kts 326°
2026-04-27 12:15 -34.82073 -58.52884 19274 ft 408 kts 335°
2026-04-27 12:15 -34.79221 -58.53492 19963 ft 422 kts 347°
2026-04-27 12:15 -34.76265 -58.53737 20606 ft 429 kts 349°
2026-04-27 12:16 -34.73264 -58.53898 21265 ft 432 kts 349°
2026-04-27 12:16 -34.70243 -58.54038 21946 ft 435 kts 349°
2026-04-27 12:16 -34.67202 -58.54174 22570 ft 439 kts 349°
2026-04-27 12:16 -34.64138 -58.54307 23167 ft 443 kts 349°
2026-04-27 12:17 -34.61045 -58.54439 23753 ft 446 kts 349°
2026-04-27 12:17 -34.57975 -58.54806 24234 ft 439 kts 339°
2026-04-27 12:17 -34.55107 -58.55862 24742 ft 424 kts 326°
2026-04-27 12:17 -34.52634 -58.57669 25238 ft 407 kts 310°
2026-04-27 12:18 -34.50570 -58.59972 25734 ft 402 kts 305°
2026-04-27 12:18 -34.48606 -58.62391 26192 ft 404 kts 304°
2026-04-27 12:18 -34.46647 -58.64840 26654 ft 406 kts 304°
2026-04-27 12:18 -34.44672 -58.67307 27131 ft 409 kts 304°
2026-04-27 12:19 -34.42681 -58.69792 27561 ft 412 kts 304°
2026-04-27 12:19 -34.40683 -58.72284 28005 ft 414 kts 304°
2026-04-27 12:19 -34.38667 -58.74796 28434 ft 417 kts 305°
2026-04-27 12:19 -34.36637 -58.77321 28847 ft 419 kts 305°
2026-04-27 12:20 -34.34630 -58.79814 29377 ft 420 kts 305°
2026-04-27 12:20 -34.32587 -58.82352 29788 ft 423 kts 305°
2026-04-27 12:20 -34.30525 -58.84911 30165 ft 425 kts 305°
2026-04-27 12:20 -34.28453 -58.87483 30514 ft 428 kts 306°
2026-04-27 12:21 -34.26369 -58.90063 30827 ft 430 kts 306°
2026-04-27 12:21 -34.24270 -58.92660 31140 ft 433 kts 306°
2026-04-27 12:21 -34.22162 -58.95266 31457 ft 435 kts 306°
2026-04-27 12:21 -34.20039 -58.97890 31747 ft 437 kts 306°
2026-04-27 12:22 -34.17919 -59.00503 32202 ft 431 kts 307°
2026-04-27 12:22 -34.15873 -59.02996 32682 ft 404 kts 307°
2026-04-27 12:22 -34.13941 -59.05306 33202 ft 377 kts 307°
2026-04-27 12:22 -34.12132 -59.07423 33831 ft 348 kts 307°
2026-04-27 12:23 -34.10422 -59.09381 34099 ft 330 kts 307°
2026-04-27 12:23 -34.08776 -59.11238 34127 ft 318 kts 307°